AO-07 1 07530U 74089B 20289.51157442 -.00000043 00000-0 12977-4 0 9991 2 07530 101.8167 258.6455 0012352 131.4560 339.8987 12.53645612101036 UO-11 1 14781U 84021B 20289.57766516 .00000068 00000-0 14419-4 0 9997 2 14781 97.5910 295.5785 0008949 157.1513 203.0102 14.83199219970638 LO-19 1 20442U 90005G 20289.61219992 -.00000002 00000-0 15878-4 0 9992 2 20442 98.7047 237.3334 0012104 156.2736 203.9008 14.32963097605829 HUBBLE 1 20580U 90037B 20289.57917193 .00000466 00000-0 17315-4 0 9994 2 20580 028.4695 245.1120 0002458 307.8512 215.1561 15.09449747474120 MET-2/21 1 22782U 93055A 20289.54721687 .00000009 00000-0 -52267-5 0 9991 2 22782 082.5470 138.2947 0021269 258.0028 161.5309 13.83829073369656 AO-27 1 22825U 93061C 20289.57294906 -.00000001 00000-0 17768-4 0 9996 2 22825 098.9268 295.0665 0008987 033.7435 326.4316 14.30094759410982 IO-26 1 22826U 93061D 20289.53117049 .00000003 00000-0 19143-4 0 9995 2 22826 098.9208 294.9571 0009314 022.0528 338.1052 14.30431420411214 FO-29 1 24278U 96046B 20289.40120745 -.00000018 00000-0 15413-4 0 9990 2 24278 098.5892 023.5616 0351221 064.3657 299.3329 13.53099929193105 NOAA-15 1 25338U 98030A 20289.62978780 .00000025 00000-0 28968-4 0 9993 2 25338 98.7093 314.0239 0009316 273.4940 86.5175 14.25993752166359 GO-32 1 25397U 98043D 20289.41283206 -.00000013 00000-0 13646-4 0 9996 2 25397 098.7383 230.0470 0002370 079.0606 281.0839 14.23692234156629 ISS 1 25544U 98067A 20289.85770609 .00000449 00000-0 16149-4 0 9995 2 25544 51.6430 111.3891 0001431 33.8136 59.8337 15.49304987250729 NO-44 1 26931U 01043C 20289.13880663 -.00000038 00000-0 17382-4 0 9992 2 26931 067.0515 193.5302 0006703 276.2548 083.7790 14.30590402994194 SO-50 1 27607U 02058C 20289.59234099 -.00000002 00000-0 20087-4 0 9993 2 27607 64.5572 7.0519 0034039 135.1420 225.2444 14.75667521958582 CO-55 1 27844U 03031E 20289.52113777 .00000058 00000-0 45885-4 0 9993 2 27844 098.6835 295.4500 0010923 070.3075 289.9281 14.22261214897163 CO-57 1 27848U 03031J 20289.51240402 .00000042 00000-0 38946-4 0 9995 2 27848 098.6900 296.0069 0010860 081.7724 278.4684 14.21845160897004 RS-22 1 27939U 03042A 20289.71365667 .00000154 00000-0 36299-4 0 9994 2 27939 98.1073 63.0551 0012392 339.0737 20.9965 14.66894710911647 NOAA-18 1 28654U 05018A 20289.58094415 .00000092 00000-0 74328-4 0 9995 2 28654 99.0305 347.0549 0013375 251.0828 108.8893 14.12546786793965 CO-58 1 28895U 05043F 20289.31158314 .00000119 00000-0 31672-4 0 9995 2 28895 098.0271 062.4286 0015491 262.1259 097.8186 14.63809019798145 Falconsat-3 1 30776U 07006E 20289.24806606 .00003053 00000-0 80043-4 0 9999 2 30776 035.4341 233.2920 0003209 214.6137 145.4381 15.38368500755297 CO-65 1 32785U 08021C 20289.45976343 .00000220 00000-0 29240-4 0 9993 2 32785 097.5847 272.2688 0014565 094.8378 265.4503 14.88529899675727 AAUSAT2 1 32788U 08021F 20289.51784927 .00000097 00000-0 13773-4 0 9994 2 32788 097.4956 288.7090 0012212 019.8049 340.3644 14.95179072677259 DO-64 1 32789U 08021G 20289.11636191 .00001382 00000-0 93708-4 0 9994 2 32789 097.4073 327.6795 0010381 263.9226 096.0820 15.08001863679844 CO-66 1 32791U 08021J 20289.52092312 .00000450 00000-0 50661-4 0 9999 2 32791 97.5502 278.4266 0014703 65.2093 295.0653 14.91131751676357 RS-30 1 32953U 08025A 20289.63919642 .00000037 00000-0 19437-3 0 9995 2 32953 82.5067 203.1648 0019047 148.3253 211.8979 12.43098670562564 PRISM 1 33493U 09002B 20289.55982431 .00000103 00000-0 14452-4 0 9995 2 33493 98.1549 234.8981 0015901 22.2883 337.9025 14.97176639637688 NOAA-19 1 33591U 09005A 20289.59354285 .00000025 00000-0 39126-4 0 9999 2 33591 99.1968 298.0738 0014954 98.7266 261.5599 14.12434900602354 TISAT-1 1 36799U 10035E 20289.46434120 .00000214 00000-0 27575-4 0 9995 2 36799 98.2026 104.4274 0011092 300.0790 59.9327 14.91446545557013 JUGNU 1 37839U 11058B 20289.37698399 .00000316 00000-0 26731-4 0 9993 2 37839 019.9614 275.4979 0018674 270.4240 235.7351 14.12691324465767 SRMSAT 1 37841U 11058D 20289.46259437 .00000349 00000-0 46891-4 0 9997 2 37841 019.9731 341.7884 0011964 121.4091 266.6646 14.10676042465113 AO-71 1 37854U 11061E 20289.37084030 .00000984 00000-0 56615-4 0 9990 2 37854 101.7132 082.5849 0157438 065.1034 296.6451 15.07608443489548 HRBE 1 37855U 11061F 20289.46076461 .00000920 00000-0 52638-4 0 9991 2 37855 101.7258 079.8168 0169976 078.6833 283.3424 15.06640123489270 HORYU-2 1 38340U 12025D 20289.41422764 .00000150 00000-0 29676-4 0 9999 2 38340 098.2675 345.7760 0011819 024.6990 335.4782 14.75900956442243 RS-40 1 38735U 12041C 20289.74237332 .00000003 00000-0 -47065-4 0 9996 2 38735 82.4724 285.6529 0015757 259.6336 100.2971 12.42580549372799 BEESAT-3 1 39135U 13015F 20289.38547958 .00000777 00000-0 47064-4 0 9997 2 39135 064.8657 274.0193 0028284 223.9774 135.9102 15.18423504413814 BEESAT-2 1 39136U 13015G 20289.41532008 .00001198 00000-0 68008-4 0 9991 2 39136 064.8739 279.3317 0035304 266.9680 092.7406 15.17820076413323 ZACUBE-1 1 39417U 13066B 20289.46812422 .00000185 00000-0 29651-4 0 9991 2 39417 097.5731 280.8605 0057380 243.7742 115.7566 14.81333599372806 TRITON-1 1 39427U 13066M 20289.43948118 .00000290 00000-0 53782-4 0 9990 2 39427 97.7405 243.7901 0114866 54.7204 306.4682 14.68060457369461 GOMX-1 1 39430U 13066Q 20289.71899591 .00000115 00000-0 29637-4 0 9993 2 39430 97.7961 221.0170 0150879 165.1947 195.3751 14.59446875367343 LO-74 1 39440U 13066AA 20289.54609875 .00000237 00000-0 40019-4 0 9991 2 39440 097.6446 265.4913 0078985 311.1185 048.3225 14.76070211370299 AO-73 1 39444U 13066AE 20289.53141783 .00000223 00000-0 33662-4 0 9994 2 39444 97.5662 283.2122 0056590 234.9688 124.6208 14.82198968371747 SPROUT 1 39770U 14029E 20289.73282335 .00000598 00000-0 71377-4 0 9997 2 39770 97.9034 35.5550 0008083 297.1869 62.8525 14.87906050346948 DUCHIFAT-1 1 40021U 14033M 20289.54504891 .00000363 00000-0 42595-4 0 9996 2 40021 097.9474 221.5450 0011388 250.4071 109.5917 14.91001976343783 NANOSATCBR1 1 40024U 14033Q 20289.50109792 .00000339 00000-0 40940-4 0 9991 2 40024 97.9301 217.4800 0010739 255.9318 104.0706 14.90156989343635 DTUSAT-2 1 40030U 14033W 20289.52573793 .00000251 00000-0 32860-4 0 9991 2 40030 097.9024 211.0179 0010412 260.1956 099.8085 14.88777588342874 EO-80 1 40032U 14033Y 20289.48144027 .00000261 00000-0 33986-4 0 9993 2 40032 097.9029 210.9769 0010371 261.1634 098.8409 14.88728880342849 ANTELSAT 1 40034U 14033AA 20289.53296155 .00000200 00000-0 36929-4 0 9994 2 40034 097.6997 139.3901 0058050 332.0011 027.8078 14.74310995339576 VELOX-1 1 40057U 14034E 20289.87832342 .00000261 00000-0 43867-4 0 9997 2 40057 98.2973 70.2682 0012012 117.1387 243.1048 14.77945469339424 DAURIA DX 1 1 40071U 14037C 20289.81456916 .00000090 00000-0 19059-4 0 9995 2 40071 98.4628 114.9097 0009565 108.4121 251.8133 14.81399074339075 HODOYOSHI-1 1 40299U 14070B 20289.54100979 .00000520 00000-0 24154-4 0 9999 2 40299 097.3144 003.4411 0014198 127.5989 345.9550 15.24208667330100 CHUBUSAT-1 1 40300U 14070C 20289.75563149 .00000610 00000-0 29011-4 0 9994 2 40300 97.2758 355.2525 0020210 146.0862 3.1583 15.22662313329810 QSAT-EOS 1 40301U 14070D 20289.76388826 .00001772 00000-0 68320-4 0 9999 2 40301 97.2836 1.4205 0026322 119.7686 355.7700 15.27320992330294 FIREBIRD FU3 1 40377U 15003B 20289.44605323 .00001705 00000-0 68480-4 0 9991 2 40377 099.0865 014.1693 0121520 273.2103 085.5230 15.20500430315533 FIREBIRD FU4 1 40378U 15003C 20289.23148777 .00001684 00000-0 67615-4 0 9999 2 40378 99.0868 14.0183 0121677 273.7840 84.9485 15.20519682315518 GRIFEX 1 40379U 15003D 20289.42959404 .00001004 00000-0 45938-4 0 9998 2 40379 99.0911 5.4539 0130995 300.7039 58.1336 15.16730372315032 NO-84 1 40654U 15025D 20288.13657307 .00017943 00000-0 18932-3 0 579 2 40654 54.9828 112.5648 0111707 135.9933 225.0049 15.56903804187496 DEORBITSAIL 1 40719U 15032E 20289.40783213 .00000350 00000-0 56553-4 0 9997 2 40719 097.8530 174.9956 0016048 175.5120 184.6237 14.77090438283801 NUDT-PHONESAT 1 40900U 15049B 20289.72151417 .00001913 00000-0 80473-4 0 9991 2 40900 97.4311 299.6620 0010820 283.8242 196.8876 15.24580324281510 XW-2A 1 40903U 15049E 20289.72689995 .00001908 00000-0 44339-4 0 9996 2 40903 97.2752 338.7027 0012761 178.0365 329.8907 15.43544793285027 XW-2C 1 40906U 15049H 20289.76578882 .00000346 00000-0 21360-4 0 9999 2 40906 97.4819 289.3779 0013837 322.7014 155.5803 15.16213478280482 XW-2D 1 40907U 15049J 20289.78278935 .00000766 00000-0 42742-4 0 9991 2 40907 97.4800 289.1220 0013280 320.2143 29.3955 15.16467274280504 LILACSAT-2 1 40908U 15049K 20289.79582382 .00000530 00000-0 32661-4 0 9995 2 40908 97.4974 287.3215 0015157 331.4187 152.0588 15.14129007280208 XW-2E 1 40909U 15049L 20289.80836895 .00001055 00000-0 54153-4 0 9992 2 40909 97.4669 292.8197 0012186 308.6364 175.7199 15.18665040280792 XW-2F 1 40910U 15049M 20289.79784811 .00001022 00000-0 53289-4 0 9995 2 40910 97.4708 291.8879 0013521 307.5673 176.7897 15.18172563280596 XW-2B 1 40911U 15049N 20289.79735043 .00000783 00000-0 43714-4 0 9994 2 40911 97.4821 289.8356 0013015 320.7753 163.2966 15.16391363280401 DCBB 1 40912U 15049P 20289.60088755 .00001110 00000-0 53749-4 0 9990 2 40912 097.4498 295.9534 0013080 281.4149 197.9143 15.20596372280977 TW-1C 1 40926U 15051B 20289.70656307 .00034535 00000-0 26570-3 0 9991 2 40926 97.0706 342.6106 0004230 13.7911 84.3139 15.71937791285873 TW-1A 1 40928U 15051D 20289.84330183 .00002976 00000-0 68640-4 0 9998 2 40928 97.1026 314.7356 0012101 104.3281 16.6953 15.43272809283939 IO-86 1 40931U 15052B 20289.03307512 .00000750 00000-0 15438-4 0 9999 2 40931 6.0003 202.6505 0012438 171.3808 188.6533 14.76646356272962 LQSat 1 40958U 15057A 20289.41152861 .00000016 00000-0 99472-5 0 9996 2 40958 097.8398 348.7978 0019368 122.4031 237.9054 14.73133440270175 ATHENOXAT-1 1 41168U 15077C 20289.56362481 .00002161 00000-0 76902-4 0 9994 2 41168 014.9882 260.0110 0011139 000.8586 359.1753 15.14638665267548 ChubuSat-2 1 41338U 16012B 20289.45638187 .00000350 00000-0 20362-4 0 9997 2 41338 031.0038 303.5937 0013720 225.7572 134.1937 15.00344151255777 ChubuSat-3 1 41339U 16012C 20289.70411922 .00000292 00000-0 15788-4 0 9993 2 41339 31.0127 299.5142 0013457 236.5279 123.4087 15.00504708255818 Horyu-4 1 41340U 16012D 20289.35571152 .00000530 00000-0 33185-4 0 9994 2 41340 031.0054 288.1670 0013872 258.8431 101.0645 15.01582016255919 OUFTI-1 1 41458U 16025C 20289.52923163 .00002814 00000-0 14183-3 0 9993 2 41458 098.1171 046.5587 0162855 164.8793 195.7387 15.07245531245566 e-st@r-II 1 41459U 16025D 20289.87628859 .00003116 00000-0 15785-3 0 9991 2 41459 98.1132 46.2355 0164491 166.1947 194.3922 15.06775087245572 AAUSAT4 1 41460U 16025E 20289.82425623 .00003294 00000-0 16142-3 0 9997 2 41460 98.1107 48.9557 0152574 153.5883 207.3249 15.09245632245799 LO-87 1 41557U 16033B 20289.55729622 .00001179 00000-0 45362-4 0 9996 2 41557 097.4016 019.0080 0014385 028.8977 085.5558 15.28305328244116 NuSat2 1 41558U 16033C 20289.75874737 .00001374 00000-0 49355-4 0 9990 2 41558 97.4081 21.9722 0013220 24.9636 92.2237 15.30322105244282 Lapan A3 1 41603U 16040E 20289.76656372 .00000007 00000-0 33929-5 0 9996 2 41603 97.2955 339.4499 0014492 135.4185 5.0427 15.19882092239413 Swayam 1 41607U 16040J 20289.39153360 .00001496 00000-0 63425-4 0 9994 2 41607 097.3045 345.8686 0014507 120.5101 239.7571 15.24570441239691 Pratham 1 41783U 16059A 20289.42912953 .00000063 00000-0 21415-4 0 9996 2 41783 098.0027 341.4291 0032318 299.4539 060.3440 14.63078903216426 AlSat 1N 1 41789U 16059G 20289.82116307 .00000054 00000-0 19176-4 0 9996 2 41789 98.0075 344.9129 0026961 284.8197 75.0005 14.64348407216642 ScatSat 1 41790U 16059H 20289.18442882 .00009469 00000-0 24103-2 0 9990 2 41790 98.3370 325.9411 0004028 266.6272 93.3937 14.50842452214582 TY-1 1 41844U 16066D 20289.79355360 .00000814 00000-0 35420-4 0 9990 2 41844 97.4043 296.6318 0013172 282.5923 250.5042 15.25048476218607 Pegasus-1 1 41846U 16066F 20289.12382944 .00000224 00000-0 45002-4 0 9999 2 41846 098.6484 340.3552 0365758 236.6686 119.8988 14.37833719206162 CAS-2T 1 41847U 16066G 20289.57463697 .00000071 00000-0 21680-4 0 9990 2 41847 098.6404 341.2180 0364746 230.8089 126.0179 14.38098281206688 EO-88 1 42017U 17008BX 20289.16884967 .00001522 00000-0 60484-4 0 9996 2 42017 097.3484 354.9312 0004525 253.9130 106.1611 15.26836077203812 CAS-4B 1 42759U 17034B 20289.82454806 .00000148 00000-0 22400-4 0 9995 2 42759 43.0182 85.6599 0009541 63.3708 43.2592 15.09907804184163 CAS-4A 1 42761U 17034D 20289.82903502 .00000201 00000-0 25603-4 0 9998 2 42761 43.0181 84.8551 0009986 65.0049 43.4110 15.09987487184167 UCLSat 1 42765U 17036A 20289.34099948 .00001186 00000-0 52083-4 0 9996 2 42765 097.2873 340.2905 0010220 331.4965 028.5712 15.23794506184832 NIUSat 1 42766U 17036B 20289.40263068 .00000883 00000-0 41670-4 0 9993 2 42766 097.2870 337.4889 0014185 323.7828 036.2447 15.21928724183935 LituanicaSAT 2 1 42768U 17036D 20289.39985511 .00001957 00000-0 82265-4 0 9995 2 42768 097.2936 340.5255 0013131 317.7304 042.2921 15.24524646184117 Aalto 1 1 42775U 17036L 20289.57528276 .00000701 00000-0 33616-4 0 9996 2 42775 097.2847 337.9875 0012618 323.0287 037.0079 15.22016825183942 URSA MAIOR 1 42776U 17036M 20289.41813279 .00000797 00000-0 37594-4 0 9994 2 42776 097.2860 338.1733 0012416 323.2943 036.7442 15.22216516183939 Max Valier Sat 1 42778U 17036P 20289.13963816 .00000876 00000-0 40341-4 0 9990 2 42778 097.2918 339.3905 0011022 328.0134 032.0433 15.22827409183945 Pegasus 1 42784U 17036V 20289.12845346 .00001089 00000-0 48527-4 0 9994 2 42784 097.2879 339.7244 0010827 333.1894 026.8782 15.23467525183993 NUDATSat 1 42787U 17036Y 20289.73439648 .00002355 00000-0 97306-4 0 9994 2 42787 97.2928 342.0001 0011550 328.4965 31.5575 15.24918226184027 SUCHAI 1 1 42788U 17036Z 20289.37046245 .00001294 00000-0 56124-4 0 9996 2 42788 097.2888 340.6633 0010273 330.3957 029.6698 15.24065851184146 SKCUBE 1 42789U 17036AA 20289.36404179 .00001215 00000-0 53143-4 0 9991 2 42789 097.2882 340.4709 0010180 330.9554 029.1116 15.23886792184053 VZLUSAT 1 1 42790U 17036AB 20289.39662392 .00001646 00000-0 68954-4 0 9993 2 42790 097.2910 341.6629 0009570 327.9506 032.1149 15.24885178184121 VENTA 1 1 42791U 17036AC 20289.40552362 .00001204 00000-0 52741-4 0 9998 2 42791 097.2880 340.5461 0009865 331.6757 028.3943 15.23859966184053 Robusta 1B 1 42792U 17036AD 20289.10552801 .00001253 00000-0 54415-4 0 9998 2 42792 097.2885 340.5095 0009791 332.5453 027.5266 15.24089843184041 D-SAT 1 42794U 17036AF 20289.54578307 .00000300 00000-0 31402-4 0 9990 2 42794 097.4847 316.1988 0125087 324.7161 034.5824 14.91337910180597 TechnoSat 1 42829U 17042E 20289.60283991 .00000265 00000-0 31990-4 0 9997 2 42829 97.5004 165.6196 0012777 241.8549 118.1379 14.91143018177190 QIKCOM-1 1 42983U 98067NF 20289.58554452 .00004902 00000-0 59674-4 0 9995 2 42983 51.6384 59.5166 0003652 144.7193 215.4043 15.62581503169069 AO-91 1 43017U 17073E 20289.27412863 .00000890 00000-0 73966-4 0 9999 2 43017 097.7150 196.8463 0257222 020.2099 340.9073 14.79063021156871 EcAMSat 1 43019U 98067NG 20289.58180756 .00010761 00000-0 98695-4 0 9994 2 43019 51.6415 40.8318 0003089 136.2131 223.9111 15.68358622251634 PICSAT 1 43132U 18004X 20289.16439277 .00001358 00000-0 57766-4 0 9998 2 43132 097.4369 359.7243 0009335 003.0483 357.0809 15.24713551153290 AO-92 1 43137U 18004AC 20289.16247330 .00000970 00000-0 42527-4 0 9998 2 43137 097.4355 359.4590 0009074 005.8083 354.3258 15.24352492153288 TianYi 2 1 43155U 18008A 20289.76000662 .00000426 00000-0 28567-4 0 9997 2 43155 97.4354 355.7209 0019140 93.0469 55.8895 15.11795035151092 Zhou Enlai 1 43156U 18008B 20289.75957125 .00000519 00000-0 34398-4 0 9994 2 43156 97.4398 355.5617 0016266 91.7575 56.5489 15.11357829151048 TianYi 6 1 43158U 18008D 20289.81290461 .00000771 00000-0 49990-4 0 9990 2 43158 97.4324 354.5176 0014876 88.6707 48.6196 15.10879593150991 S-Net D 1 43186U 18014G 20289.30902352 .00000121 00000-0 15583-4 0 9991 2 43186 097.6852 195.1420 0010801 174.3552 185.7793 14.96867756147629 S-Net B 1 43187U 18014H 20289.44256576 .00000101 00000-0 13872-4 0 9994 2 43187 097.6850 195.2480 0010848 173.9245 186.2110 14.96867410147648 S-Net A 1 43188U 18014J 20289.30875183 .00000141 00000-0 17345-4 0 9994 2 43188 097.6853 195.1509 0010805 174.4364 185.6980 14.96867260147623 S-Net C 1 43189U 18014K 20289.30922418 .00000099 00000-0 13622-4 0 9995 2 43189 097.6850 195.1115 0010805 174.3218 185.8128 14.96866539146174 FMN 1 1 43192U 18015A 20289.80353409 .00002034 00000-0 81509-4 0 9993 2 43192 97.4584 58.8580 0016384 30.1933 73.6269 15.26083693150252 Shaonian Xing 1 43199U 18015H 20289.85782122 .00001482 00000-0 60082-4 0 9992 2 43199 97.4369 56.8590 0017723 39.0194 82.8756 15.26116759150325 UBAKUSAT 1 43467U 98067NQ 20289.47033967 .00056413 00000-0 24117-3 0 9991 2 43467 51.6340 20.7781 0002295 347.8483 12.2465 15.84587612139072 EnduroSat One 1 43551U 98067NZ 20289.40008140 .12819970 12606-4 34454-3 0 9995 2 43551 51.6143 6.3935 0004068 320.9805 39.0930 16.45548142129489 EQUISat 1 43552U 98067PA 20289.55778791 .00060700 00000-0 27227-3 0 9995 2 43552 051.6306 028.2041 0002145 273.1861 086.8896 15.83545265129178 UiTMSat 1 1 43589U 98067PD 20289.54160529 .00126812 17187-4 37670-3 0 9996 2 43589 51.6314 21.8458 0004758 326.3061 33.7643 15.92267192124999 Maya 1 1 43590U 98067PE 20289.53314838 .00123501 16882-4 36657-3 0 9998 2 43590 51.6259 21.7180 0004525 329.2706 30.8035 15.92298287124925 Bhutan 1 1 43591U 98067PF 20289.48695312 .00130641 17608-4 37717-3 0 9990 2 43591 51.6320 21.5692 0004821 328.1986 31.8729 15.92796503124923 SiriusSat 1 1 43595U 98067PG 20289.84016360 .00057230 00000-0 23108-3 0 9999 2 43595 51.6273 28.3528 0005350 344.0051 16.6644 15.85755741124046 SiriusSat 2 1 43596U 98067PH 20289.84660215 .00107888 00000-0 43069-3 0 9997 2 43596 51.6250 29.2326 0001579 302.2769 57.0726 15.85761541124033 SurfSat 1 43614U 18070B 20289.53121813 .00002960 00000-0 74743-4 0 9995 2 43614 093.0294 204.3035 0012631 225.2693 134.7534 15.39822001116956 CP-7 DAVE 1 43615U 18070C 20289.44515938 .00002772 00000-0 70407-4 0 9995 2 43615 093.0297 204.2504 0012808 225.3606 134.6605 15.39640919116933 ELFIN-B 1 43616U 18070D 20289.43587112 .00004168 00000-0 10023-3 0 9996 2 43616 093.0255 204.2338 0012958 226.2073 133.8111 15.41274585116991 ELFIN-A 1 43617U 18070E 20289.45257171 .00004392 00000-0 10471-3 0 9994 2 43617 093.0309 204.8551 0012480 221.4673 138.5636 15.41533403117002 STARS-Me Mother 1 43640U 98067PQ 20289.55538424 .00019504 00000-0 16848-3 0 9993 2 43640 051.6340 057.5985 0002930 130.7517 229.3735 15.69231004115565 CubeBel 1 1 43666U 18083E 20289.76557146 .00000740 00000-0 39165-4 0 9996 2 43666 97.4826 315.0093 0013553 305.9923 106.2828 15.18481457108877 Changshagaoxin 1 43669U 18083H 20289.77393999 .00000701 00000-0 38348-4 0 9993 2 43669 97.4705 312.8417 0009459 301.5097 118.6335 15.17465572108773 Ten-Koh 1 43677U 18084G 20289.40429954 .00000204 00000-0 26851-4 0 9998 2 43677 097.8958 046.2671 0017276 120.5089 239.7837 14.90328005106805 PO-101 1 43678U 18084H 20289.81823929 -.00000190 00000-0 -13121-4 0 9996 2 43678 97.8965 48.3099 0010798 133.3692 226.8437 14.91655704106965 IRVINE 01 1 43693U 18088D 20289.45878074 .00002669 00000-0 11014-3 0 9997 2 43693 085.0382 357.5516 0016782 201.8210 158.2320 15.23406879107119 QO-100 1 43700U 18090A 20289.50911605 .00000137 00000-0 00000-0 0 9991 2 43700 000.0222 208.3814 0001882 020.6333 004.5433 01.00269882006915 Reaktor Hello World 1 43743U 18096AA 20289.17566653 .00001248 00000-0 48667-4 0 9995 2 43743 097.4118 002.4009 0019249 067.3211 293.0061 15.27689892104679 MinXSS-2 1 43758U 18099A 20289.14875636 .00000845 00000-0 80777-4 0 9995 2 43758 097.6965 359.0770 0016603 145.0949 215.1365 14.95752929101840 AO-95 1 43770U 18099N 20289.44731022 -.00000104 00000-0 -42496-5 0 9999 2 43770 097.6955 358.6737 0015264 151.7951 208.4100 14.95062396101844 RANGE-B 1 43772U 18099Q 20289.18389804 .00000045 00000-0 92501-5 0 9993 2 43772 097.7027 359.0662 0015098 140.6593 219.5727 14.95275899101801 RANGE-A 1 43773U 18099R 20289.44043706 -.00000184 00000-0 -11585-4 0 9999 2 43773 097.6895 358.2132 0014502 139.1802 221.0508 14.95022841101837 MOVE-II 1 43780U 18099Y 20289.29495053 .00000580 00000-0 57464-4 0 9990 2 43780 097.6965 358.8203 0014358 149.0163 211.1908 14.95516729101823 SNUSat 2 1 43782U 18099AA 20289.45426446 -.00000010 00000-0 42349-5 0 9996 2 43782 097.6950 358.9352 0013731 138.6806 221.5457 14.95322771101856 SnugLite 1 43784U 18099AC 20289.21380105 .00000737 00000-0 71702-4 0 9992 2 43784 097.6918 358.4918 0016059 146.9668 213.2559 14.95429460101831 ITASat 1 1 43786U 18099AE 20289.21670527 .00000691 00000-0 67590-4 0 9993 2 43786 097.6972 358.9525 0016160 146.1771 214.0484 14.95392098101834 EAGLET 1 1 43790U 18099AJ 20289.44587050 -.00000189 00000-0 -11815-4 0 9994 2 43790 097.6961 359.4854 0014185 149.2201 210.9855 14.95772929101589 ESEO 1 43792U 18099AL 20289.46615048 .00000183 00000-0 21637-4 0 9992 2 43792 097.6929 359.2659 0014183 146.3761 213.8363 14.95628575101643 CSIM 1 43793U 18099AM 20289.47140749 .00000792 00000-0 75328-4 0 9997 2 43793 097.6934 359.3412 0014151 143.9973 216.2205 14.96166481101636 Astrocast 0.1 1 43798U 18099AS 20289.22214428 .00000659 00000-0 63918-4 0 9995 2 43798 097.6962 359.3896 0013764 130.3425 229.9001 14.95923518101859 JO-97 1 43803U 18099AX 20289.14965894 .00000785 00000-0 75780-4 0 9993 2 43803 097.6933 358.6784 0016127 146.5877 213.6365 14.95583604101826 Suomi 100 1 43804U 18099AY 20289.48604571 .00000719 00000-0 69843-4 0 9993 2 43804 097.6930 358.9916 0016179 145.5006 214.7269 14.95569548101886 Al Farabi 2 1 43805U 18099AZ 20289.78442294 -.00000042 00000-0 13737-5 0 9991 2 43805 97.6947 359.4102 0015944 144.1873 216.0412 14.95708248101937 PWSat 2 1 43814U 18099BJ 20289.52183196 .00038449 00000-0 18160-2 0 9999 2 43814 97.7947 13.2626 0009034 157.4847 202.6785 15.19282728101903 CHOMPTT 1 43855U 18104G 20289.53877322 .00000961 00000-0 38843-4 0 9993 2 43855 085.0338 095.7435 0016452 336.6386 023.4107 15.23166836101808 ISAT 1 43879U 18111D 20289.87114604 -.00000244 00000-0 -16498-4 0 9999 2 43879 97.6914 195.3040 0012174 197.2425 162.8400 14.96319437 96470 UWE-4 1 43880U 18111E 20289.29683994 .00000860 00000-0 80564-4 0 9997 2 43880 097.6943 195.0752 0011569 197.2365 162.8465 14.96572514098415 Sparrow 1 43881U 18111F 20289.54317436 .00000375 00000-0 37954-4 0 9997 2 43881 097.6940 195.4070 0012010 195.7114 164.3737 14.96611422098452 Lume 1 1 43908U 18111AJ 20289.24581659 .00001099 00000-0 46190-4 0 9990 2 43908 097.2518 185.5772 0022894 080.2664 280.1158 15.25271542100284 FO-98 1 43933U 19003B 20289.42620386 .00000682 00000-0 32434-4 0 9993 2 43933 097.2168 334.4902 0017950 173.7027 186.4439 15.22275996096784 FO-99 1 43937U 19003F 20289.67359247 .00001243 00000-0 52733-4 0 9997 2 43937 97.2129 336.3200 0024608 155.8275 204.4124 15.24663343 96951 Delphini 1 1 44030U 98067PW 20289.55977939 .00031901 00000-0 24598-3 0 9991 2 44030 051.6324 062.8639 0002663 206.0822 154.0042 15.71655966097367 MYSat 1 1 44045U 18092F 20289.28581396 .00002476 00000-0 77189-4 0 9995 2 44045 51.6387 180.1915 0011517 41.3482 318.8372 15.37310472 93716 AstroCast 0.2 1 44083U 19018F 20289.62843862 .00000747 00000-0 35900-4 0 9997 2 44083 97.4084 348.9361 0014754 109.1907 251.0927 15.21775571 85656 AISTechSat 3 1 44103U 19018AB 20289.72027987 .00000690 00000-0 31928-4 0 9996 2 44103 97.3958 349.2711 0014784 121.2054 355.2590 15.23352031 85749 AISat 1 1 44104U 19018AC 20289.15818523 .00001060 00000-0 35962-4 0 9992 2 44104 097.4531 359.5250 0058770 146.4153 214.0836 15.31262440086123 Raavana-1 1 44329U 98067QE 20289.44618920 .00013649 00000-0 16822-3 0 9992 2 44329 051.6376 091.5946 0005213 097.2672 262.8914 15.60512415075723 Uguisu 1 44330U 98067QF 20289.46631679 .00014151 00000-0 17495-3 0 9998 2 44330 051.6354 091.6958 0005208 096.5229 263.6358 15.60394591075701 NepaliSat-1 1 44331U 98067QG 20289.50148616 .00013205 00000-0 16289-3 0 9997 2 44331 051.6354 091.1832 0005225 099.6378 260.5206 15.60523346075728 Prox-1 1 44339U 19036A 20289.45101730 .00000995 00000-0 18578-3 0 9999 2 44339 24.0003 76.7430 0011222 21.1496 338.9458 14.53157075 69601 Oculus-ASR 1 44348U 19036K 20289.47708760 .00008052 00000-0 11505-3 0 9992 2 44348 028.5151 314.9541 0359332 150.0090 212.1605 15.04558460071883 Armadillo 1 44352U 19036P 20289.37211419 .00012189 00000-0 17290-3 0 9999 2 44352 028.5305 307.7748 0343439 160.5964 200.8061 15.08210414071894 NO-104 1 44354U 19036R 20289.39056718 .00008485 00000-0 11910-3 0 9999 2 44354 028.5296 311.7020 0355862 153.9059 207.9940 15.05674242071903 NO-103 1 44355U 19036S 20289.35679460 .00017439 00000-0 23187-3 0 9999 2 44355 028.5298 295.7520 0326550 179.8335 180.2404 15.13102639072069 CP9 1 44360U 19036X 20289.29658268 .00028122 -60570-5 29094-3 0 9999 2 44360 028.5128 271.6515 0298543 220.2214 137.5932 15.22852665072175 Move-IIb 1 44398U 19038N 20289.76553470 .00001228 00000-0 73550-4 0 9994 2 44398 97.5489 249.5636 0026623 73.1796 287.2353 15.12591365 70767 SONATE 1 44400U 19038Q 20289.76811261 .00000418 00000-0 27956-4 0 9992 2 44400 97.5533 249.5689 0026748 72.9434 287.4723 15.12071339 70759 BeeSat 9 1 44412U 19038AC 20289.42175483 .00000967 00000-0 58985-4 0 9992 2 44412 097.5530 249.3577 0024264 079.0393 281.3566 15.12489480070406 JAISAT-1 1 44419U 19038F 20289.53598542 .00000920 00000-0 55620-4 0 9998 2 44419 097.5534 249.8264 0023140 077.6757 282.7063 15.12974118070757 LightSail-2 1 44420U 19036AC 20289.45338827 .00005951 00000-0 12521-2 0 9997 2 44420 024.0081 068.9533 0020631 358.7165 001.3273 14.56827111067827 Taurus 1 1 44530U 19059C 20289.82323466 .00000960 00000-0 28350-3 0 9991 2 44530 98.5644 12.0501 0015703 157.4134 202.7747 14.45704363 57732 Duchifat 3 1 44854U 19089C 20289.71906190 .00000294 00000-0 30164-4 0 9999 2 44854 36.9649 107.5654 0009872 314.6341 45.3601 14.99153812 46350 OPS-SAT 1 44878U 19092F 20289.53175330 .00000947 00000-0 53170-4 0 9990 2 44878 097.4710 110.8078 0012795 304.3074 055.6947 15.15695331045724 TO-108 1 44881U 19093C 20289.82452834 -.00000006 00000-0 60680-5 0 9996 2 44881 97.9493 5.0032 0015451 11.7212 348.4342 14.81419634 44511 FloripaSat 1 1 44885U 19093G 20289.77036707 .00000221 00000-0 34511-4 0 9992 2 44885 97.9499 5.2142 0015245 22.2475 337.9397 14.82093589 44526 RS-44 1 44909U 19096E 20289.44653544 .00000013 00000-0 14954-4 0 9998 2 44909 082.5172 275.5762 0216505 306.1686 051.9556 12.79708574037535 SwampSat-2 1 45115U 19071E 20289.09093128 .00012537 00000-0 34260-3 0 9993 2 45115 051.6396 142.0590 0013103 130.9226 229.2894 15.37686941039514 HO-107 1 45119U 19071J 20289.02603335 .00001657 00000-0 60969-4 0 9994 2 45119 51.6429 145.3236 0012767 123.5934 236.6268 15.33989498 39478 Phoenix 1 45258U 98067RB 20289.71523785 .00005339 00000-0 94871-4 0 9996 2 45258 51.6398 109.1389 0006214 72.1330 288.0337 15.51934669 37143 AztechSat-1 1 45261U 98067RE 20289.76243971 .00010878 00000-0 17277-3 0 9999 2 45261 51.6392 107.2151 0007517 90.1804 270.0048 15.53879472 37197 QARMAN 1 45263U 98067RG 20289.73046854 .00008711 00000-0 14495-3 0 9991 2 45263 51.6396 108.4982 0007198 86.3827 273.7986 15.52877664 37219 Quetzal 1 1 45598U 98067RL 20289.74588641 .00007309 00000-0 12734-3 0 9994 2 45598 51.6404 110.1034 0003297 166.2266 193.8814 15.51867646 26464 BY70-2 1 45857U 20042B 20289.82893448 .00000815 00000-0 12477-3 0 9992 2 45857 98.0064 1.9715 0009624 280.8084 79.2035 14.76358485 15454 UPMSat 2 1 46276U 20061E 20289.71612973 .00000441 00000-0 26314-4 0 9990 2 46276 97.4603 2.0884 0002885 110.7742 249.3800 15.16074965 6458 AmicalSat 1 46287U 20061R 20289.75543362 .00000734 00000-0 49033-4 0 9999 2 46287 97.5154 2.0832 0002264 182.2874 177.8345 15.09979677 6417 /EX
